East Saint Louis, IL

3:16 AM CST on December 06, 2016 (GMT -0600)
Saint Louis Downtown

Weather History for KCPS - August, 2014

Change the Weather History Date:

Sunday, August 10, 2014

  Actual Average Record
Temperature  
Mean Temperature 78 °F -  
Max Temperature 84 °F 77 °F 99 °F (2010)
Min Temperature 71 °F 63 °F 60 °F (1996)
Cooling Degree Days 12    
Growing Degree Days 28 (Base 50)    
Moisture  
Dew Point 70 °F    
Average Humidity 86    
Maximum Humidity 97    
Minimum Humidity 63    
Precipitation  
Precipitation 0.00 in - - ()
Sea Level Pressure  
Sea Level Pressure 29.98 in    
Wind  
Wind Speed 2 mph (NNW)    
Max Wind Speed 8 mph    
Max Gust Speed -    
Visibility 6 miles    
Events      
Averages and records for this station are not official NWS values.
T = Trace of Precipitation, MM = Missing Value Source: NWS Daily Summary

Daily Weather History Graph

Daily Weather History Graph

Search for Another Location

Airport or City:

Trip Planner

Search our weather history database for the weather conditions in past years. The results will help you decide how hot, cold, wet, or windy it might be!

Date:

Astronomy

Aug. 10, 2014 Rise Set
Actual Time 6:10 AM CDT 8:00 PM CDT
Civil Twilight 5:41 AM CDT 8:29 PM CDT
Nautical Twilight 5:06 AM CDT 9:04 PM CDT
Astronomical Twilight 4:29 AM CDT 9:41 PM CDT
Moon 7:48 PM CDT (8/10) 6:02 AM CDT (8/10)
Length of Visible Light 14h 48m
Length of Day
13h 50m
Full, 100% of the Moon is Illuminated
Aug 10
Full
Aug 10
Full
Aug 17
Last Quarter
Aug 25
New
Sep 2
First Quarter

Hourly Weather History & Observations

Time (CDT) Temp. Heat Index Dew Point Humidity Pressure Visibility Wind Dir Wind Speed Gust Speed Precip Events Conditions
12:16 AM 71.1 °F - 69.1 °F 93% 29.99 in 4.0 mi Calm Calm - N/A   Mostly Cloudy
12:53 AM 72.0 °F - 70.0 °F 93% 29.98 in 4.0 mi WNW 3.5 mph - N/A   Overcast
1:53 AM 72.0 °F - 70.0 °F 93% 29.97 in 4.0 mi Calm Calm - N/A   Overcast
2:10 AM 72.0 °F - 70.0 °F 93% 29.98 in 4.0 mi West 3.5 mph - N/A   Overcast
2:43 AM 73.0 °F - 70.0 °F 90% 29.98 in 4.0 mi Calm Calm - N/A   Overcast
2:53 AM 72.0 °F - 70.0 °F 93% 29.97 in 4.0 mi Calm Calm - N/A   Overcast
3:28 AM 73.0 °F - 71.1 °F 93% 29.98 in 5.0 mi Calm Calm - N/A   Overcast
3:53 AM 73.0 °F - 70.0 °F 90% 29.97 in 4.0 mi Calm Calm - N/A   Overcast
4:20 AM 73.0 °F - 70.0 °F 90% 29.98 in 5.0 mi Calm Calm - N/A   Overcast
4:35 AM 73.0 °F - 70.0 °F 90% 29.98 in 4.0 mi Calm Calm - N/A   Overcast
4:46 AM 73.0 °F - 71.1 °F 93% 29.98 in 4.0 mi Calm Calm - N/A   Overcast
4:53 AM 73.0 °F - 71.1 °F 93% 29.97 in 4.0 mi Calm Calm - N/A   Overcast
5:40 AM 72.0 °F - 70.0 °F 93% 29.98 in 4.0 mi South 3.5 mph - N/A   Mostly Cloudy
5:53 AM 72.0 °F - 70.0 °F 93% 29.98 in 4.0 mi Calm Calm - N/A   Partly Cloudy
6:14 AM 72.0 °F - 70.0 °F 93% 29.99 in 3.0 mi Calm Calm - N/A   Mostly Cloudy
6:42 AM 72.0 °F - 71.1 °F 97% 30.01 in 3.0 mi Calm Calm - N/A   Overcast
6:53 AM 72.0 °F - 71.1 °F 97% 30.00 in 3.0 mi Calm Calm - N/A   Overcast
6:55 AM 72.0 °F - 71.1 °F 97% 30.01 in 3.0 mi Calm Calm - N/A   Overcast
7:19 AM 73.0 °F - 71.1 °F 93% 30.01 in 3.0 mi Calm Calm - N/A   Overcast
7:53 AM 73.9 °F - 71.1 °F 91% 30.00 in 4.0 mi Calm Calm - N/A   Overcast
8:38 AM 75.9 °F - 70.0 °F 82% 30.00 in 5.0 mi Calm Calm - N/A   Haze
9:30 AM 75.9 °F - 70.0 °F 82% 30.01 in 7.0 mi NW 3.5 mph - N/A   Overcast
9:53 AM 78.1 °F - 70.0 °F 76% 30.00 in 9.0 mi NW 4.6 mph - N/A   Mostly Cloudy
10:53 AM 78.1 °F - 70.0 °F 76% 30.00 in 10.0 mi North 6.9 mph - N/A   Overcast
11:53 AM 81.0 °F 84.4 °F 70.0 °F 69% 30.00 in 10.0 mi North 8.1 mph - N/A   Overcast
12:53 PM 80.1 °F 82.9 °F 69.1 °F 69% 29.99 in 10.0 mi NNE 5.8 mph - N/A   Mostly Cloudy
1:53 PM 82.0 °F 85.9 °F 70.0 °F 67% 29.99 in 10.0 mi Variable 3.5 mph - N/A   Overcast
2:46 PM 84.0 °F 88.4 °F 70.0 °F 63% 29.99 in 10.0 mi NW 4.6 mph - N/A   Mostly Cloudy
3:53 PM 82.9 °F 87.0 °F 70.0 °F 65% 29.95 in 10.0 mi NNE 6.9 mph - N/A   Scattered Clouds
4:53 PM 82.0 °F 86.3 °F 71.1 °F 69% 29.94 in 10.0 mi NNE 6.9 mph - N/A   Mostly Cloudy
5:53 PM 80.1 °F 83.6 °F 71.1 °F 74% 29.93 in 10.0 mi NE 8.1 mph - N/A   Scattered Clouds
7:53 PM 77.0 °F - 71.1 °F 82% 29.92 in 10.0 mi NNW 4.6 mph - N/A   Partly Cloudy
8:53 PM 75.0 °F - 70.0 °F 84% 29.94 in 10.0 mi NNW 5.8 mph - N/A   Clear
9:53 PM 73.0 °F - 70.0 °F 90% 29.94 in 10.0 mi Calm Calm - N/A   Clear
11:53 PM 71.1 °F - 69.1 °F 93% 29.95 in 5.0 mi Calm Calm - N/A   Clear